Regional Weather Roundup
Issued by NWS

Current Version | Previous Version | Text Only | Print | Product List | Glossary On
Versions: 1 2 3 4 5 6 7 8 9 10 11 12 13 14 15 16 17 18 19 20 21 22 23 24 25 26 27 28 29 30 31 32 33 34 35 36 37 38 39 40 41 42 43 44 45 46 47 48 49 50
632
ASUS44 KLIX 111910
RWRLA
LOUISIANA WEATHER ROUNDUP
NATIONAL WEATHER SERVICE NEW ORLEANS LA
100 PM CST THU FEB 11 2016

NOTE: "FAIR" INDICATES FEW OR NO CLOUDS BELOW 12,000 FEET WITH NO
      SIGNIFICANT WEATHER AND/OR OBSTRUCTIONS TO VISIBILITY.
      SKY/WX - SKY CONDITION AND SIGNIFICANT WEATHER.
      TMP - AIR TEMPERATURE.    DP   - DEWPOINT TEMPERATURE.
      RH  - RELATIVE HUMIDITY.  PRES - PRESSURE.
      HX  - HEAT INDEX.         WCI  - WIND CHILL INDEX.

*  THESE STATIONS ARE NOT NWS OR FAA STATIONS AND ARE NOT UNDER
   NWS QUALITY CONTROL.

LAZ040-048-061>063-065-066-069-112000-
SOUTHEAST LOUISIANA

CITY           SKY/WX    TMP DP  RH WIND       PRES   REMARKS
N.O. AUDUBON   NOT AVBL
N.O. INTL ARPT MOSUNNY   76  53  44 SW15G23   30.17F
N.O. LAKEFRONT SUNNY     67  52  58 W21       30.17F
N.O. DOWNTOWN* FAIR      73  54  49 MISG      30.18F
RESERVE*       FAIR      75  54  48 SW18G26   30.18F
SLIDELL        SUNNY     71  56  58 SW12G20   30.16F
BATON ROUGE    SUNNY     76  51  41 SW15      30.16F
BOOTHVILLE     SUNNY     67  57  70 SW14      30.22F
BELLE CHASSE   MOSUNNY   72  56  57 SW12G24   30.17F
BOGALUSA*        N/A     76  48  37 W13G21    30.15F
GALLIANO*      CLEAR     72  58  61 W22       30.21F
NEW ROADS*     FAIR      73  51  45 W15G23    30.15F
GONZALES*      FAIR      73  55  53 SW8G21    30.17F
HAMMOND*       SUNNY     75  45  33 W15G24    30.14F
HOUMA*         MOSUNNY   72  57  60 W20G28    30.21F
PORT FOURCHON* CLEAR     66  57  72 W13G20    30.23F

$$

LAZ041-044-053-054-112000-
SOUTHWEST LOUISIANA

CITY           SKY/WX    TMP DP  RH WIND       PRES   REMARKS
LAKE CHARLES   SUNNY     72  56  57 SW14G24   30.17F
LAFAYETTE      MOSUNNY   73  54  51 SW16G28   30.17F
PATTERSON      PTSUNNY   72  57  60 W20G29    30.21F
SALT POINT       N/A     63  58  83 VRB7      30.20F
NEW IBERIA     MOSUNNY   74  56  53 SW20      30.18F
CHENAULT AIRPK SUNNY     73  54  49 SW17G24   30.16F

$$

LAZ027-028-112000-
CENTRAL LOUISIANA

CITY           SKY/WX    TMP DP  RH WIND       PRES   REMARKS
FORT POLK      SUNNY     73  44  35 SW15      30.12F
ALEXANDRIA INT SUNNY     74  44  34 W14G22    30.10F
ALEXANDRIA     SUNNY     79  42  26 SW17G23   30.11F

$$

LAZ001-002-112000-
NORTHWEST LOUISIANA

CITY           SKY/WX    TMP DP  RH WIND       PRES   REMARKS
SHREVEPORT     MOSUNNY   76  33  21 W12G21    30.06F
BARKSDALE AFB  SUNNY     75  35  23 W15       30.06F
DTN SHREVEPORT SUNNY     75  33  21 W12       30.06F

$$

LAZ014-016-112000-
NORTHEAST LOUISIANA

CITY           SKY/WX    TMP DP  RH WIND       PRES   REMARKS
MONROE         SUNNY     73  38  27 W12       30.08F
TALLULAH       SUNNY     74  38  27 W8G18     30.09F

$$





USA.gov is the U.S. government's official web portal to all federal, state and local government web resources and services.